Tracking 33188 objects as of 10-Feb-2026
HD Live streaming from Space Station
objects crossing your sky now

STARLINK-30571

Track STARLINK-30571 now!
10-day predictions
STARLINK-30571 is classified as:


NORAD ID: 58066
Int'l Code: 2023-158R
Perigee: 565.1 km
Apogee: 567.3 km
Inclination: 43.0 °
Period: 95.8 minutes
Semi major axis: 6937 km
RCS: Unknown
Launch date: October 13, 2023
Source: United States (US)
Launch site: AIR FORCE EASTERN TEST RANGE (AFETR)
Your satellite tracking list
Your tracking list is empty




NASA's NSSDC Master Catalog

Two Line Element Set (TLE):
1 58066U 23158R   26040.88628583  .00000494  00000-0  51678-4 0  9992
2 58066  43.0022 181.0077 0001586 286.2725  73.7943 15.02538010129352
Source of the keplerian elements: AFSPC